#timestamp,LO_Frequency,Hit 
1502546415.1,286047012.1,P
1502546416.0,286047012.1,N
1502546435.8,286047004.5,N
1502546455.6,286047004.6,N
1502546475.5,286047009.7,N
1502546495.3,286047010.1,N
1502546515.1,286047006.5,N
1502546535.9,286047005.8,N
1502546555.7,286047007.6,N
1502546575.5,286047003.3,N
1502546595.4,286047004.5,N
1502546615.2,286047005.2,N
1502546635.0,286047005.9,N
1502546635.9,286047005.9,N
1502546655.7,286047001.8,N
1502546675.6,286046999.7,N
1502546695.4,286046996.6,N
1502546715.2,286046999.0,N
1502546735.1,286046999.4,N
1502546736.0,286046999.4,N
1502546755.8,286046997.0,N
1502546775.6,286046998.4,N
1502546795.5,286046999.7,N
1502546815.3,286046998.2,N
1502546835.1,286047000.5,N
1502546855.9,286047004.2,N
1502546875.7,286047003.9,N
1502546895.5,286047005.8,N
1502546915.4,286047002.9,N
1502546935.2,286047003.2,N
1502546955.0,286047006.0,N
1502546955.9,286047006.0,N
1502546975.8,286047004.3,N
1502546995.6,286047001.5,N
1502547015.4,286046998.8,N
1502547035.3,286046997.7,N
1502547055.1,286047000.5,N
1502547075.6,286046998.9,N
1502547095.4,286046998.1,N
1502547115.3,286046999.4,N
1502547135.1,286047004.0,N
1502547136.0,286047004.0,N
1502547155.8,286047003.4,N
1502547175.6,286047003.7,N
1502547195.5,286047001.8,N
1502547215.3,286047003.0,N
1502547235.1,286047005.5,N
1502547255.9,286047004.4,N
1502547275.7,286047003.4,N
1502547295.5,286047004.2,N
1502547315.4,286047006.0,N
1502547335.2,286047002.8,N
1502547355.0,286047002.5,N
1502547355.9,286047002.5,N
1502547375.8,286047002.6,N
1502547395.6,286047006.0,N
1502547415.4,286046999.8,N
1502547435.7,286046998.3,N
1502547455.6,286046999.3,N
1502547475.4,286046995.5,N
1502547495.2,286046999.5,N
1502547515.1,286047002.4,N
1502547516.0,286047002.4,N
1502547535.8,286047000.0,N
1502547555.6,286046998.1,N
1502547575.5,286047001.8,N
1502547595.3,286047005.4,N
1502547615.1,286047004.1,N
1502547635.9,286047002.6,N
1502547655.7,286047002.1,N
1502547675.5,286046998.5,N
1502547695.3,286047000.9,N
1502547715.2,286047002.0,N
1502547735.0,286047002.4,N
1502547735.9,286047002.4,N
1502547755.7,286047002.2,N
1502547775.6,286047002.8,N
1502547795.4,286047001.6,N
1502547815.2,286047005.2,N
1502547835.1,286047001.6,N
1502547836.0,286047001.6,N
1502547855.8,286047002.8,N
1502547875.6,286046998.2,N
1502547895.5,286046999.3,N
1502547915.3,286047002.7,N
1502547935.1,286047002.0,N
1502547955.9,286047000.5,N
1502547975.7,286047004.4,N
1502547995.5,286047005.5,N
1502548015.4,286047003.6,N
1502548035.2,286047005.6,N
1502548055.0,286047002.9,N
1502548055.9,286047002.9,N
1502548075.8,286047008.2,P
1502548095.6,286047004.1,N
1502548115.4,286047001.9,N
1502548135.3,286047004.4,N
1502548155.1,286047001.4,N
1502548156.0,286047001.4,N
1502548175.8,286047004.3,N
1502548195.7,286047005.7,N
1502548215.5,286047003.4,N
1502548235.3,286047004.5,N
1502548255.2,286047010.0,P
1502548275.9,286047004.5,N
1502548295.7,286047004.1,N
1502548315.6,286047004.2,N
1502548335.4,286047001.3,N
1502548355.2,286047001.5,N
1502548375.0,286047001.4,N
1502548376.0,286047001.4,N
1502548395.8,286047000.4,N
1502548415.6,286046998.8,N
1502548435.5,286047000.3,N
1502548455.3,286047001.6,N
1502548475.1,286047000.2,N
1502548495.8,286047004.0,N
1502548515.7,286047010.6,P
1502548535.5,286047006.8,N
1502548555.4,286047005.9,N
1502548575.2,286047005.5,N
1502548595.0,286047001.6,N
1502548595.9,286047001.6,N
1502548615.8,286047000.2,N
1502548635.6,286047002.5,N
1502548655.4,286046999.0,N
1502548675.2,286047001.3,N
1502548695.1,286047007.6,N
1502548696.0,286047007.6,N
1502548715.8,286047004.5,N
1502548735.6,286047007.4,N
1502548755.5,286047008.8,N
1502548775.3,286047007.3,N
1502548795.1,286047009.1,N
1502548815.9,286047004.5,N
1502548835.7,286047006.8,N
1502548855.5,286047003.2,N
1502548875.4,286047000.8,N
1502548895.2,286047001.2,N
1502548915.0,286046998.1,N
1502548915.9,286046998.1,N
1502548935.8,286047000.5,N
1502548955.6,286047001.2,N
1502548975.4,286046998.2,N
1502548995.2,286047002.0,N
1502549015.1,286047004.1,N
1502549016.0,286047004.1,N
1502549035.8,286047003.7,N
1502549055.6,286046997.7,N
1502549075.5,286046995.6,N
1502549095.3,286046999.5,N
1502549115.1,286046998.9,N
1502549135.9,286046997.3,N
1502549155.7,286046994.9,N
1502549175.5,286046995.0,N
1502549195.4,286046996.3,N
1502549215.2,286046996.3,N
1502549235.0,286046994.0,N
1502549235.9,286046994.0,N
1502549255.8,286046994.9,N
1502549275.6,286046997.5,N
1502549295.4,286046997.1,N
1502549315.3,286047000.6,N
1502549335.1,286047000.2,N
1502549336.0,286047000.2,N
1502549355.8,286047002.5,N
1502549375.7,286047000.8,N
1502549395.5,286046999.8,N
1502549415.3,286046996.6,N
1502549435.1,286046996.1,N
1502549455.9,286046997.7,N
1502549475.7,286046998.4,N
1502549495.5,286046998.4,N
1502549515.6,286046997.2,N
1502549535.4,286046996.7,N
1502549555.3,286046996.7,N
1502549575.8,286046999.2,N
1502549595.6,286046999.4,N
1502549615.4,286046998.1,N
1502549635.3,286047000.6,N
1502549655.1,286046998.1,N
1502549656.0,286046998.1,N
1502549675.8,286046997.1,N
1502549695.7,286047004.1,N
1502549715.5,286047000.0,N
1502549735.3,286047001.0,N
1502549755.1,286046997.5,N
1502549775.9,286046998.7,N
1502549795.0,286047000.1,N
1502549795.9,286047000.1,N
1502549815.8,286046999.0,N
1502549835.6,286046995.1,N
1502549855.4,286046995.3,N
1502549875.3,286046996.5,N
1502549895.1,286046999.6,N
1502549896.0,286046999.6,N
1502549915.8,286047001.0,N
1502549935.7,286047000.9,N
1502549955.5,286046996.5,N
1502549975.3,286047002.4,N
1502549995.2,286047000.6,N
